EW2260 Weather Reports


time (UTC)temp
C
wind
direction
speed
KPH
gust
KPH
rain 1hr
cm
rain 24hr
cm
rain mn
cm
humidity
%
barometer
mb
20260506124204 5 0 0.0 0.0 0.00 0.00 0.00 91 1018.9
20260506123604 6 105 0.0 1.6 0.00 0.00 0.00 91 1018.9
20260506123008 6 104 0.0 1.6 0.00 0.00 0.00 91 1019.0
20260506122404 6 105 0.0 3.2 0.00 0.00 0.00 91 1018.9
20260506121804 6 105 0.0 3.2 0.00 0.00 0.00 91 1018.8
20260506121206 6 105 1.6 3.2 0.00 0.00 0.00 91 1018.7
20260506120009 6 114 3.2 6.4 0.00 0.00 0.00 91 1018.7
20260506115405 6 108 3.2 6.4 0.00 0.00 0.00 92 1018.6
20260506114804 6 101 1.6 4.8 0.00 0.00 0.00 92 1018.7
20260506114204 6 107 3.2 4.8 0.00 0.00 0.00 91 1018.6
20260506113605 6 115 3.2 4.8 0.00 0.00 0.00 91 1018.6
20260506113009 6 118 1.6 4.8 0.00 0.00 0.00 91 1018.8
20260506112405 6 119 0.0 1.6 0.00 0.00 0.00 91 1018.8
20260506111206 6 119 0.0 3.2 0.00 0.00 0.00 91 1018.7
20260506110605 6 118 1.6 3.2 0.00 0.00 0.00 91 1018.6
20260506110010 6 118 1.6 3.2 0.00 0.00 0.00 91 1018.7
20260506105405 6 119 0.0 1.6 0.00 0.00 0.00 91 1018.6
20260506104805 6 119 0.0 1.6 0.00 0.00 0.00 90 1018.7
20260506104206 6 119 0.0 1.6 0.00 0.00 0.00 90 1018.6
20260506103605 6 0 0.0 0.0 0.00 0.00 0.00 90 1018.5
20260506103009 6 119 0.0 1.6 0.00 0.00 0.00 90 1018.6
20260506102405 6 119 0.0 1.6 0.00 0.00 0.00 90 1018.6
20260506101805 6 119 0.0 1.6 0.00 0.00 0.00 90 1018.6
20260506101206 6 119 0.0 1.6 0.00 0.00 0.00 90 1018.5
20260506100605 7 118 1.6 3.2 0.00 0.00 0.00 90 1018.5
20260506100009 7 119 0.0 3.2 0.00 0.00 0.00 90 1018.4
20260506095405 7 118 1.6 3.2 0.00 0.00 0.00 90 1018.4
20260506094805 7 119 3.2 4.8 0.00 0.00 0.00 90 1018.5
20260506094206 8 109 3.2 4.8 0.00 0.00 0.00 90 1018.4
20260506093604 8 96 3.2 4.8 0.00 0.00 0.00 91 1018.4
20260506093010 8 100 3.2 4.8 0.00 0.00 0.00 91 1018.4
20260506092405 8 112 4.8 6.4 0.00 0.00 0.00 91 1018.2
20260506091805 8 113 4.8 6.4 0.00 0.00 0.00 91 1018.3
20260506090604 7 112 4.8 9.7 0.00 0.00 0.00 90 1018.4
20260506090008 7 111 4.8 6.4 0.00 0.00 0.00 90 1018.4
20260506085404 7 107 4.8 6.4 0.00 0.00 0.00 90 1018.5
20260506084204 8 111 4.8 9.7 0.00 0.00 0.00 90 1018.4
20260506083008 8 103 3.2 6.4 0.00 0.00 0.00 91 1018.5
20260506081804 7 96 3.2 4.8 0.00 0.00 0.00 91 1018.4
20260506081204 7 96 3.2 4.8 0.00 0.00 0.00 90 1018.4
20260506080604 7 122 3.2 4.8 0.00 0.00 0.00 90 1018.4
20260506073007 7 197 1.6 3.2 0.00 0.00 0.00 89 1018.2
20260506072404 7 198 0.0 3.2 0.00 0.00 0.00 89 1018.1
20260506071804 7 198 0.0 1.6 0.00 0.00 0.00 89 1018.1
20260506071204 7 198 0.0 1.6 0.00 0.00 0.00 89 1017.9
20260506070606 7 0 0.0 0.0 0.00 0.00 0.00 88 1017.8
20260506062406 8 198 0.0 1.6 0.00 0.00 0.00 88 1017.4
20260506061805 8 0 0.0 0.0 0.00 0.00 0.00 87 1017.3
20260506061204 8 0 0.0 0.0 0.00 0.00 0.00 87 1017.3
20260506060604 8 0 0.0 0.0 0.00 0.00 0.00 87 1017.3
20260506051206 10 112 3.2 4.8 0.00 0.00 0.00 87 1017.0
20260506044805 10 113 0.0 1.6 0.00 0.00 0.00 83 1016.8
20260506044205 10 113 1.6 3.2 0.00 0.00 0.00 83 1016.7
20260506043008 10 113 0.0 3.2 0.00 0.00 0.00 82 1016.6
20260506041804 11 113 0.0 1.6 0.00 0.00 0.00 82 1016.3
20260506041204 11 112 0.0 1.6 0.00 0.00 0.00 81 1016.1
20260506040604 11 113 0.0 1.6 0.00 0.00 0.00 81 1016.1
20260506035404 12 113 0.0 1.6 0.00 0.00 0.00 79 1015.9
20260506034806 12 112 0.0 1.6 0.00 0.00 0.00 79 1015.9
20260506034204 12 112 0.0 1.6 0.00 0.00 0.00 79 1015.8
20260506033606 12 0 0.0 0.0 0.00 0.00 0.00 77 1015.6
20260506033009 12 112 0.0 1.6 0.00 0.00 0.00 77 1015.5
20260506031805 13 113 1.6 3.2 0.00 0.00 0.00 76 1015.3
20260506031204 13 113 1.6 4.8 0.00 0.00 0.00 75 1015.2
20260506030605 13 131 1.6 4.8 0.00 0.00 0.00 75 1015.1
20260506030008 13 264 0.0 3.2 0.00 0.00 0.00 74 1015.0
20260506025404 14 264 0.0 1.6 0.00 0.00 0.00 74 1014.9
20260506024804 14 261 1.6 3.2 0.00 0.00 0.00 74 1014.9
20260506024204 14 260 1.6 3.2 0.00 0.00 0.00 74 1014.9
20260506023604 14 263 3.2 9.7 0.00 0.00 0.00 74 1014.8
20260506023008 14 264 8.0 16.1 0.00 0.00 0.00 74 1014.8
20260506022404 14 260 9.7 19.3 0.00 0.00 0.00 73 1014.7
20260506020008 15 269 11.3 19.3 0.00 0.00 0.00 72 1014.4
20260506015404 15 265 9.7 16.1 0.00 0.00 0.00 71 1014.4
20260506014804 15 260 11.3 17.7 0.00 0.00 0.00 72 1014.4
20260506013605 15 264 11.3 19.3 0.00 0.00 0.00 71 1014.4
20260506013008 15 265 11.3 19.3 0.00 0.00 0.00 71 1014.3
20260506012404 15 254 11.3 19.3 0.00 0.00 0.00 71 1014.3
20260506011804 15 252 11.3 19.3 0.00 0.00 0.00 71 1014.3
20260506010604 15 261 14.5 27.4 0.00 0.00 0.00 70 1014.4
20260506010008 15 257 11.3 20.9 0.00 0.00 0.00 70 1014.3
20260506004805 15 252 12.9 20.9 0.00 0.00 0.00 69 1014.4
20260506003605 16 263 14.5 24.1 0.00 0.00 0.00 68 1014.3
20260506003008 16 258 16.1 24.1 0.00 0.00 0.00 67 1014.3
20260506002404 16 258 17.7 25.7 0.00 0.00 0.00 67 1014.3
20260506001805 16 261 16.1 25.7 0.00 0.00 0.00 67 1014.3
20260506000008 17 263 16.1 24.1 0.00 0.00 0.00 65 1014.2
20260505235404 17 255 16.1 24.1 0.00 0.00 0.00 65 1014.2
20260505234205 17 254 16.1 25.7 0.00 0.00 0.00 62 1014.3
20260505233604 18 257 14.5 24.1 0.00 0.00 0.00 63 1014.3
20260505232404 17 253 16.1 24.1 0.00 0.00 0.00 63 1014.3
20260505231804 17 251 16.1 25.7 0.00 0.00 0.00 62 1014.3
20260505231204 17 253 16.1 25.7 0.00 0.00 0.00 62 1014.3
20260505230605 18 256 14.5 24.1 0.00 0.00 0.00 61 1014.3
20260505230008 18 263 14.5 24.1 0.00 0.00 0.00 61 1014.3
20260505225404 18 272 12.9 19.3 0.00 0.00 0.00 60 1014.3
20260505224804 18 253 12.9 20.9 0.00 0.00 0.00 60 1014.4
20260505224204 18 241 11.3 20.9 0.00 0.00 0.00 60 1014.5
20260505223605 18 249 11.3 24.1 0.00 0.00 0.00 61 1014.5
20260505223009 18 263 12.9 24.1 0.00 0.00 0.00 60 1014.5
20260505222404 18 258 12.9 20.9 0.00 0.00 0.00 59 1014.6
20260505221804 17 262 11.3 20.9 0.00 0.00 0.00 60 1014.7
20260505220604 17 278 11.3 17.7 0.00 0.00 0.00 59 1014.8
20260505220008 17 283 9.7 17.7 0.00 0.00 0.00 59 1014.9
20260505215404 17 277 11.3 17.7 0.00 0.00 0.00 60 1014.9
20260505214804 17 269 12.9 19.3 0.00 0.00 0.00 60 1014.9
20260505214204 17 268 12.9 19.3 0.00 0.00 0.00 60 1015.0
20260505213604 17 264 9.7 19.3 0.00 0.00 0.00 59 1015.1
20260505213007 17 267 9.7 17.7 0.00 0.00 0.00 59 1015.1
20260505211804 17 258 11.3 19.3 0.00 0.00 0.00 60 1015.2
20260505211204 17 262 12.9 20.9 0.00 0.00 0.00 60 1015.3
20260505210604 17 262 14.5 22.5 0.00 0.00 0.00 60 1015.3
20260505210009 17 274 14.5 22.5 0.00 0.00 0.00 61 1015.3
20260505205404 17 270 12.9 20.9 0.00 0.00 0.00 61 1015.2
20260505204804 17 270 14.5 19.3 0.00 0.00 0.00 61 1015.2
20260505204206 17 270 11.3 19.3 0.00 0.00 0.00 60 1015.2
20260505203604 17 255 9.7 17.7 0.00 0.00 0.00 62 1015.2
20260505203009 17 255 11.3 19.3 0.00 0.00 0.00 64 1015.2
20260505202404 17 272 11.3 22.5 0.00 0.00 0.00 63 1015.2
20260505201804 17 271 11.3 19.3 0.00 0.00 0.00 64 1015.3
20260505201204 17 253 12.9 20.9 0.00 0.00 0.00 64 1015.2
20260505200604 16 247 8.0 20.9 0.00 0.00 0.00 64 1015.3
20260505200008 16 258 9.7 17.7 0.00 0.00 0.00 62 1015.2
20260505194804 16 256 11.3 17.7 0.00 0.00 0.00 63 1015.3
20260505194204 16 262 9.7 17.7 0.00 0.00 0.00 63 1015.3
20260505193604 16 281 11.3 20.9 0.00 0.00 0.00 63 1015.4
20260505193009 16 269 8.0 17.7 0.00 0.00 0.00 62 1015.3
20260505192404 17 277 4.8 14.5 0.00 0.00 0.00 60 1015.3
20260505191805 17 12 3.2 8.0 0.00 0.00 0.00 58 1015.2
20260505190604 17 76 4.8 12.9 0.00 0.00 0.00 59 1015.2
20260505190008 17 31 4.8 12.9 0.00 0.00 0.00 57 1015.3
20260505185404 17 29 3.2 14.5 0.00 0.00 0.00 58 1015.2
20260505184804 17 34 3.2 6.4 0.00 0.00 0.00 60 1015.2
20260505184204 17 166 3.2 8.0 0.00 0.00 0.00 60 1015.3
20260505183604 17 324 3.2 8.0 0.00 0.00 0.00 59 1015.1
20260505182405 17 337 4.8 11.3 0.00 0.00 0.00 60 1015.1
20260505181804 17 294 6.4 16.1 0.00 0.00 0.00 59 1015.2
20260505181204 17 315 4.8 16.1 0.00 0.00 0.00 60 1015.2
20260505180604 17 351 6.4 14.5 0.00 0.00 0.00 61 1015.2
20260505180008 16 34 4.8 12.9 0.00 0.00 0.00 62 1015.1
20260505175404 16 37 3.2 12.9 0.00 0.00 0.00 62 1015.2
20260505174804 16 4 4.8 11.3 0.00 0.00 0.00 64 1015.1
20260505173604 15 9 4.8 11.3 0.00 0.00 0.00 63 1015.3
20260505172403 15 28 4.8 12.9 0.00 0.00 0.00 65 1015.4
20260505170604 14 14 4.8 11.3 0.00 0.00 0.00 68 1015.4
20260505170008 14 351 4.8 11.3 0.00 0.00 0.00 69 1015.4
20260505165404 14 327 3.2 6.4 0.00 0.00 0.00 69 1015.3
20260505164805 13 9 1.6 6.4 0.00 0.00 0.00 72 1015.3
20260505164204 13 331 1.6 8.0 0.00 0.00 0.00 73 1015.4
20260505163604 13 2 3.2 12.9 0.00 0.00 0.00 72 1015.5
20260505163009 13 346 4.8 12.9 0.00 0.00 0.00 74 1015.5
20260505162404 12 311 4.8 11.3 0.00 0.00 0.00 75 1015.4
20260505161804 12 339 4.8 9.7 0.00 0.00 0.00 75 1015.4
20260505161203 12 333 4.8 11.3 0.00 0.00 0.00 75 1015.5
20260505160605 12 333 3.2 11.3 0.00 0.00 0.00 77 1015.4
20260505153008 11 122 3.2 6.4 0.00 0.00 0.00 83 1015.1
20260505152403 11 114 3.2 6.4 0.00 0.00 0.00 84 1015.1
20260505151805 11 104 4.8 9.7 0.00 0.00 0.00 83 1015.0
20260505151204 11 106 4.8 9.7 0.00 0.00 0.00 82 1015.0
20260505140604 8 108 1.6 6.4 0.00 0.00 0.00 90 1014.8